{"data":{"norad_id":60998,"epoch":"2026-05-25T00:49:03.503712Z","epoch_age_seconds":65355,"freshness":"FRESH","line1":"1 60998U 24158J   26145.03406833  .00001809  00000+0  19790-4 0  9994","line2":"2 60998  53.1591 265.0375 0001261 323.6093  36.4839 15.69706157 99572","mean_motion":15.69706157,"eccentricity":0.0001261,"inclination_deg":53.1591,"raan_deg":265.0375,"arg_perigee_deg":323.6093,"mean_anomaly_deg":36.4839,"bstar":1.979e-5,"rev_number":9957,"period_min":91.736914809082,"perigee_km":358.88810163152,"apogee_km":360.58739364287,"semimajor_km":6737.8747476372,"source":"CELESTRAK","updated_at":"2026-05-25T13:38:19.323745Z"}}